[[{"header":{"parameterUnit":"m.s-1","parameterCategory":1,"la1":30.2991,"la2":30.254,"lo1":-89.0895,"lo2":-89.0444,"dy":0.0017,"dx":0.0017,"nx":28,"ny":28,"refTime":"2023-07-28T21:00:00:Z","depth":0,"parameterNumber":2,"parameterNumberName":"U-component_of_WINDS"},"data":[0,0,0,0,0,0,0,0,0,0,0,0,0,0,0,0,0,0,0,0,0,0,0,0,0,0,0,0,0,0,0,0,0,0,0,0,0,0,0,0,0,0,0,0,0,0,0,0,0,0,0,0,0,0,0,0,0,0,3.5788,3.5788,0,3.5845,3.5846,3.5847,3.5763,3.576,3.5757,3.5754,3.5814,3.5818,3.5823,0,0,0,0,0,0,0,0,0,0,0,0,0,3.5606,3.561,3.5787,3.5788,3.5789,3.5845,3.5846,3.5847,3.5764,3.576,3.5757,3.5753,3.5813,3.5818,3.5823,0,0,0,0,0,0,0,0,0,0,0,0,0,3.5677,3.5611,3.5787,3.5754,3.5752,3.5845,3.5846,3.5847,3.5764,3.576,3.5756,3.5751,3.5811,3.5817,3.5824,3.5952,0,0,3.5843,3.5846,0,0,0,0,0,0,0,0,3.5673,3.5683,3.5758,3.5757,3.5754,3.5792,3.5804,3.5882,3.5766,3.576,3.5754,3.5749,3.581,3.5817,3.5837,3.5955,3.5957,3.5844,3.5848,3.5851,3.5853,0,0,0,0,0,0,0,3.5668,3.568,3.581,3.576,3.5757,3.5737,3.5742,3.5818,3.5809,3.576,3.5754,3.5762,3.5808,3.5831,3.5838,3.5958,3.5844,3.585,3.5854,3.5856,3.6185,3.6189,0,0,0,0,0,0,3.5667,3.5677,3.5808,3.5812,3.5702,3.5744,3.5749,3.5785,3.5808,3.5807,3.5766,3.5758,3.5822,3.5831,3.584,3.5992,3.5851,3.5857,3.5861,3.618,3.6186,3.6191,0,0,0,0,0,0,3.5663,3.568,3.5806,3.5743,3.5757,3.5752,3.5792,3.5788,3.5811,3.5812,3.581,3.579,3.5819,3.5831,3.5925,3.5993,3.586,3.5866,3.6174,3.6182,3.6188,3.6297,0,0,0,0,0,0,3.5659,3.5679,3.5727,3.5745,3.5761,3.589,3.5796,3.5792,3.5822,3.5812,3.5835,3.5835,3.5817,3.5916,3.5931,3.5999,3.5871,3.6168,3.6178,3.6186,3.6287,3.6307,3.6324,0,0,0,0,0,3.5652,3.5755,3.573,3.5746,3.5822,3.5894,3.5904,3.5881,3.5828,3.5877,3.5878,3.5834,3.5983,3.5926,3.5943,3.6014,3.6164,3.6175,3.6185,3.6279,3.6303,3.6323,0,0,0,0,0,0,3.5746,3.5757,3.5729,3.5841,3.5867,3.588,3.5941,3.5907,3.5949,3.5938,3.5908,3.5914,3.6015,3.6024,3.596,3.614,3.6065,3.6079,3.613,3.6153,3.6171,3.6166,3.5876,0,0,0,0,0,3.5779,3.5837,3.5844,3.5942,3.5957,3.5947,3.5978,3.5958,3.5984,3.5995,3.6003,3.603,3.6083,3.6118,3.6167,3.6288,3.6292,3.6345,3.6364,3.6379,3.6392,3.6457,3.6481,3.6227,3.6227,3.6226,0,0,3.5849,3.5863,3.5901,3.5961,3.5979,3.604,3.5957,3.6024,3.6069,3.6005,3.6094,3.6102,3.613,3.6238,3.6287,3.6249,3.6463,3.6393,3.6405,3.6409,3.647,3.6494,3.6516,3.6234,3.6233,3.6232,0,0,3.6008,3.6024,3.6107,3.6127,3.6156,3.6149,3.6169,3.6187,3.619,3.6279,3.6232,3.6285,3.6377,3.64,3.6423,3.6592,3.6553,3.6609,3.6704,3.6768,3.6788,3.6805,3.6865,3.6887,3.6622,3.6622,3.6622,0,3.6091,3.618,3.6154,3.6225,3.6253,3.6198,3.6283,3.6304,3.6347,3.6368,3.6325,3.644,3.6455,3.6568,3.6609,3.663,3.6653,3.6605,3.6787,3.6804,3.682,3.6877,3.69,3.6628,3.6628,3.6627,3.6626,0,3.6281,3.6344,3.6408,3.6451,3.6487,3.6565,3.655,3.6589,3.6567,3.6565,3.6657,3.6674,3.6725,3.6751,3.6729,3.6861,3.6837,3.6792,3.6715,3.6851,3.6904,3.6926,3.6638,3.6635,3.6633,3.6632,0,0,3.6499,3.6527,3.6551,3.657,3.6599,3.6647,3.6723,3.6773,3.6807,3.684,3.6902,3.6982,3.694,3.6967,3.6948,3.7004,3.7137,3.6951,3.6951,3.6985,3.7283,3.7317,3.7342,3.7111,3.7116,3.7119,3.7281,0,3.6656,3.6786,3.6766,3.6892,3.695,3.6899,3.6965,3.699,3.699,3.704,3.704,3.7097,3.7037,3.7053,3.7107,3.7109,3.7196,3.7097,3.7169,3.7172,3.7163,3.737,3.7406,3.7557,3.7301,3.7305,3.7307,0,3.6857,3.6897,3.7029,3.7049,3.7072,3.7132,3.7177,3.7225,3.7252,3.7249,3.728,3.725,3.7326,3.725,3.7354,3.7288,3.7316,3.7322,3.7328,3.7333,3.7247,3.738,3.7605,3.7628,3.7339,3.7337,3.7335,0,3.7003,3.7089,3.7179,3.7197,3.7223,3.7266,3.7279,3.7302,3.7334,3.7373,3.7393,3.7442,3.7468,3.7506,3.7491,3.7437,3.7599,3.7521,3.7598,3.7598,3.7633,3.7631,3.7866,3.7653,3.7653,3.7653,3.7652,0,3.718,3.7263,3.7245,3.73,3.7392,3.7367,3.7459,3.7465,3.7487,3.7543,3.7502,3.7556,3.7533,3.7585,3.7574,3.7662,3.7675,3.7674,3.767,3.7677,3.7677,3.7695,3.7684,3.7659,3.7657,3.7656,3.7655,0,3.7358,3.7349,3.7443,3.746,3.7466,3.7533,3.7547,3.7599,3.7597,3.7669,3.7684,3.7681,3.774,3.7729,3.7795,3.7788,3.7898,3.7881,3.7889,3.7885,3.7962,3.7955,3.8215,3.8248,3.8015,3.8018,3.8019,0,3.7471,3.7534,3.7557,3.7592,3.7608,3.7664,3.7696,3.7676,3.7711,3.7748,3.7796,3.7852,3.7895,3.7993,3.7997,3.8047,3.8031,3.8119,3.8038,3.8044,3.8032,3.8028,3.8034,3.8135,3.8137,3.8139,3.8141,0,3.7674,3.7667,3.7715,3.7762,3.7802,3.7838,3.7871,3.7902,3.7883,3.7926,3.7986,3.802,3.8088,3.8144,3.8191,3.8204,3.8171,3.8167,3.8187,3.8195,3.8197,3.8196,3.7932,3.8161,3.8159,3.8157,3.8156,3.8155,3.7823,3.7876,3.7901,3.7956,3.7978,3.801,3.806,3.8064,3.8114,3.8167,3.8152,3.8221,3.8247,3.8307,3.8326,3.838,3.8347,3.8377,3.8384,3.8392,3.8401,3.8189,3.8389,3.8388,3.8388,3.8387,3.8387,0,3.8023,3.8037,3.8088,3.8135,3.8179,3.8143,3.8177,3.8216,3.8277,3.8305,3.8349,3.8419,3.8473,3.8482,3.8534,3.8575,3.8561,3.859,3.8586,3.859,3.8427,3.8404,3.86,3.86,3.86,3.86,3.86,3.86,3.8133,3.8221,3.8217,3.8316,3.8329,3.8396,3.8419,3.8448,3.847,3.855,3.8595,3.86,3.862,3.8673,3.8722,3.8723,3.8744,3.8779,3.8774,3.8622,3.8601,3.8581,3.8559,3.8784,3.8784,3.8931,3.8933,3.8934]},{"header":{"parameterUnit":"m.s-1","parameterCategory":1,"la1":30.2991,"la2":30.254,"lo1":-89.0895,"lo2":-89.0444,"dy":0.0017,"dx":0.0017,"nx":28,"ny":28,"refTime":"2023-07-28T21:00:00:Z","depth":0,"parameterNumber":3,"parameterNumberName":"V-component_of_WINDS"},"data":[0,0,0,0,0,0,0,0,0,0,0,0,0,0,0,0,0,0,0,0,0,0,0,0,0,0,0,0,0,0,0,0,0,0,0,0,0,0,0,0,0,0,0,0,0,0,0,0,0,0,0,0,0,0,0,0,0,0,-0.7955,-0.7955,0,-0.803,-0.8031,-0.8032,-0.8057,-0.8057,-0.8057,-0.8056,-0.8132,-0.8135,-0.8137,0,0,0,0,0,0,0,0,0,0,0,0,0,-0.7832,-0.7834,-0.7955,-0.7955,-0.7956,-0.803,-0.8031,-0.8032,-0.8057,-0.8057,-0.8056,-0.8056,-0.8132,-0.8134,-0.8137,0,0,0,0,0,0,0,0,0,0,0,0,0,-0.7894,-0.7835,-0.7954,-0.7978,-0.7981,-0.803,-0.8031,-0.8032,-0.8057,-0.8057,-0.8056,-0.8056,-0.8131,-0.8134,-0.8138,-0.8168,0,0,-0.8148,-0.815,0,0,0,0,0,0,0,0,-0.7891,-0.7899,-0.7973,-0.7976,-0.798,-0.8034,-0.8016,-0.8078,-0.8057,-0.8028,-0.8056,-0.8056,-0.81,-0.8106,-0.8121,-0.8172,-0.8175,-0.8149,-0.8151,-0.8152,-0.8153,0,0,0,0,0,0,0,-0.7886,-0.7896,-0.7984,-0.7975,-0.7978,-0.7985,-0.7993,-0.8028,-0.8066,-0.8031,-0.8033,-0.8041,-0.8101,-0.8118,-0.8123,-0.8176,-0.8148,-0.8152,-0.8154,-0.8155,-0.8257,-0.8258,0,0,0,0,0,0,-0.7878,-0.7892,-0.7982,-0.7987,-0.7933,-0.7987,-0.7997,-0.8017,-0.8065,-0.8072,-0.8042,-0.8042,-0.8112,-0.8119,-0.8126,-0.8166,-0.8152,-0.8155,-0.8157,-0.8257,-0.8258,-0.8258,0,0,0,0,0,0,-0.7875,-0.7886,-0.7979,-0.794,-0.7952,-0.799,-0.8012,-0.8019,-0.8035,-0.8074,-0.8081,-0.8051,-0.8112,-0.8121,-0.8158,-0.8168,-0.8157,-0.816,-0.8256,-0.8257,-0.8258,-0.8245,0,0,0,0,0,0,-0.7872,-0.7885,-0.7897,-0.794,-0.7954,-0.801,-0.8013,-0.802,-0.8041,-0.8042,-0.8084,-0.8091,-0.8112,-0.8153,-0.8161,-0.8173,-0.8163,-0.8255,-0.8256,-0.8258,-0.8244,-0.8245,-0.8246,0,0,0,0,0,-0.7867,-0.789,-0.7897,-0.7908,-0.797,-0.801,-0.8018,-0.8043,-0.8042,-0.8054,-0.8079,-0.809,-0.8166,-0.8156,-0.8166,-0.8179,-0.8255,-0.8256,-0.8258,-0.8244,-0.8245,-0.8246,0,0,0,0,0,0,-0.7846,-0.7896,-0.7905,-0.7942,-0.7972,-0.8014,-0.8031,-0.8043,-0.8073,-0.8073,-0.8102,-0.8111,-0.8146,-0.8167,-0.8155,-0.8212,-0.8211,-0.8214,-0.8197,-0.8199,-0.8199,-0.8193,-0.8166,0,0,0,0,0,-0.7846,-0.7874,-0.7916,-0.7945,-0.796,-0.7993,-0.8011,-0.8027,-0.8059,-0.8072,-0.81,-0.8131,-0.8162,-0.8181,-0.8212,-0.8248,-0.8258,-0.8262,-0.8263,-0.8263,-0.8265,-0.8286,-0.8289,-0.8263,-0.8263,-0.8263,0,0,-0.7845,-0.7876,-0.7892,-0.7941,-0.7966,-0.7996,-0.8003,-0.8033,-0.8055,-0.8077,-0.8113,-0.8135,-0.8171,-0.8208,-0.8225,-0.8226,-0.8275,-0.8265,-0.8265,-0.8267,-0.8288,-0.8291,-0.8293,-0.8264,-0.8264,-0.8264,0,0,-0.7859,-0.7885,-0.7912,-0.7937,-0.7976,-0.7998,-0.8004,-0.8046,-0.8061,-0.8099,-0.8116,-0.8142,-0.8195,-0.822,-0.824,-0.8265,-0.8276,-0.8274,-0.8278,-0.8298,-0.83,-0.8302,-0.8311,-0.8314,-0.8277,-0.8277,-0.8277,0,-0.7853,-0.7898,-0.7924,-0.7954,-0.7975,-0.7997,-0.8025,-0.8048,-0.8094,-0.8108,-0.8109,-0.8176,-0.8202,-0.8245,-0.8251,-0.8267,-0.8275,-0.8269,-0.8297,-0.83,-0.8302,-0.8311,-0.8314,-0.8276,-0.8276,-0.8276,-0.8276,0,-0.7889,-0.792,-0.7937,-0.7982,-0.8005,-0.8034,-0.8065,-0.8085,-0.81,-0.8122,-0.816,-0.8193,-0.823,-0.8242,-0.8256,-0.8288,-0.8287,-0.8292,-0.8291,-0.8303,-0.8312,-0.8316,-0.8276,-0.8276,-0.8276,-0.8276,0,0,-0.789,-0.795,-0.7956,-0.7977,-0.8021,-0.8046,-0.8076,-0.8113,-0.813,-0.8162,-0.8188,-0.8233,-0.8238,-0.8261,-0.8278,-0.8296,-0.8314,-0.8299,-0.8301,-0.8301,-0.8351,-0.8347,-0.835,-0.8322,-0.8323,-0.8324,-0.8348,0,-0.7909,-0.7963,-0.7989,-0.8032,-0.8061,-0.8083,-0.8109,-0.8139,-0.8161,-0.8189,-0.8213,-0.8245,-0.825,-0.8263,-0.8282,-0.8308,-0.8325,-0.8307,-0.8346,-0.8347,-0.8336,-0.8355,-0.835,-0.8371,-0.8352,-0.8352,-0.8353,0,-0.7938,-0.7971,-0.8017,-0.8059,-0.8072,-0.8095,-0.8132,-0.8159,-0.8194,-0.8209,-0.8235,-0.8252,-0.8284,-0.8282,-0.8328,-0.8315,-0.8333,-0.8348,-0.835,-0.8354,-0.835,-0.8359,-0.8379,-0.8382,-0.8359,-0.8358,-0.8358,0,-0.7934,-0.7989,-0.8024,-0.8042,-0.8092,-0.8107,-0.8129,-0.8164,-0.8185,-0.8218,-0.8232,-0.8268,-0.8287,-0.8315,-0.8341,-0.8337,-0.8384,-0.8384,-0.8397,-0.8396,-0.8405,-0.8404,-0.8428,-0.8418,-0.8418,-0.8417,-0.8417,0,-0.7953,-0.798,-0.8023,-0.8045,-0.8076,-0.8106,-0.8136,-0.8159,-0.819,-0.8217,-0.8238,-0.8262,-0.8296,-0.8325,-0.8346,-0.8381,-0.8389,-0.8402,-0.8407,-0.84,-0.8398,-0.8411,-0.841,-0.8418,-0.8418,-0.8418,-0.8418,0,-0.7953,-0.7983,-0.8023,-0.8067,-0.8079,-0.8101,-0.8139,-0.8161,-0.8184,-0.8218,-0.8227,-0.8264,-0.8299,-0.8329,-0.8374,-0.8389,-0.8425,-0.8431,-0.8413,-0.8415,-0.8427,-0.8425,-0.8459,-0.8465,-0.8451,-0.8451,-0.8451,0,-0.7963,-0.7984,-0.8032,-0.8051,-0.8073,-0.8104,-0.8126,-0.8156,-0.8178,-0.8221,-0.8237,-0.8274,-0.8305,-0.836,-0.8391,-0.8427,-0.8434,-0.8443,-0.8439,-0.8431,-0.8434,-0.8432,-0.8434,-0.8443,-0.8443,-0.8443,-0.8443,0,-0.7977,-0.7991,-0.8022,-0.8059,-0.8085,-0.8115,-0.8146,-0.8161,-0.8197,-0.8221,-0.8257,-0.8281,-0.8329,-0.8365,-0.8405,-0.8427,-0.8441,-0.8445,-0.845,-0.8442,-0.843,-0.8437,-0.8413,-0.8443,-0.8443,-0.8443,-0.8443,-0.8443,-0.7982,-0.8002,-0.8039,-0.8073,-0.81,-0.8129,-0.8152,-0.8179,-0.821,-0.8251,-0.8267,-0.8304,-0.834,-0.8394,-0.8417,-0.8447,-0.8448,-0.8455,-0.8457,-0.8458,-0.8457,-0.8426,-0.8454,-0.8454,-0.8454,-0.8454,-0.8454,0,-0.7997,-0.8022,-0.8053,-0.8096,-0.8123,-0.8135,-0.8171,-0.8192,-0.8225,-0.8257,-0.8288,-0.833,-0.8366,-0.84,-0.8438,-0.8455,-0.8462,-0.8464,-0.8462,-0.8467,-0.8453,-0.8445,-0.8457,-0.8457,-0.8457,-0.8457,-0.8457,-0.8457,-0.8007,-0.8043,-0.8062,-0.8111,-0.8136,-0.8173,-0.8192,-0.8219,-0.8245,-0.8291,-0.8321,-0.8343,-0.8377,-0.8417,-0.8451,-0.846,-0.8472,-0.8472,-0.8483,-0.8469,-0.8468,-0.8467,-0.846,-0.8474,-0.8474,-0.8494,-0.8494,-0.8494]}]]